DW6891 Weather Reports


time (UTC)temp
C
wind
direction
speed
KPH
gust
KPH
rain 1hr
cm
rain 24hr
cm
rain mn
cm
humidity
%
barometer
mb
20260507104457 8 285 0.0 0.0 0.00 0.00 0.00 89 1020.6
20260507103957 8 285 0.0 0.0 0.00 0.00 0.00 90 1020.5
20260507103458 8 285 0.0 3.2 0.00 0.00 0.00 90 1020.6
20260507102958 8 285 0.0 3.2 0.00 0.00 0.00 90 1020.7
20260507102459 8 283 0.0 1.6 0.00 0.00 0.00 91 1020.7
20260507101958 8 261 0.0 0.0 0.00 0.00 0.00 91 1020.7
20260507101457 8 261 0.0 0.0 0.00 0.00 0.00 91 1020.7
20260507100957 8 261 0.0 0.0 0.00 0.00 0.00 91 1020.7
20260507100458 8 261 0.0 0.0 0.00 0.00 0.00 91 1020.6
20260507100000 8 261 0.0 0.0 0.00 0.00 0.00 91 1020.7
20260507094459 8 261 0.0 0.0 0.00 0.00 0.00 90 1020.6
20260507093459 8 261 0.0 0.0 0.00 0.00 0.00 90 1020.6
20260507092959 8 261 0.0 0.0 0.00 0.00 0.00 89 1020.6
20260507092459 9 261 0.0 0.0 0.00 0.00 0.00 89 1020.6
20260507091959 9 261 0.0 0.0 0.00 0.00 0.00 89 1020.6
20260507091457 9 261 0.0 0.0 0.00 0.00 0.00 88 1020.6
20260507090959 9 261 0.0 0.0 0.00 0.00 0.00 88 1020.6
20260507090458 10 261 0.0 0.0 0.00 0.00 0.00 88 1020.6
20260507090000 10 261 0.0 0.0 0.00 0.00 0.00 87 1020.6
20260507085459 10 261 0.0 0.0 0.00 0.00 0.00 87 1020.5
20260507084958 10 261 0.0 1.6 0.00 0.00 0.00 88 1020.5
20260507084457 10 261 0.0 1.6 0.00 0.00 0.00 88 1020.5
20260507084000 10 261 0.0 1.6 0.00 0.00 0.00 88 1020.5
20260507082959 10 261 0.0 3.2 0.00 0.00 0.00 88 1020.6
20260507082458 10 269 0.0 1.6 0.00 0.00 0.00 88 1020.5
20260507081958 10 269 0.0 1.6 0.00 0.00 0.00 88 1020.6
20260507081457 10 265 0.0 1.6 0.00 0.00 0.00 88 1020.6
20260507080958 10 265 0.0 4.8 0.00 0.00 0.00 88 1020.5
20260507080459 10 264 0.0 1.6 0.00 0.00 0.00 88 1020.5
20260507075959 10 263 0.0 3.2 0.00 0.00 0.00 88 1020.5
20260507075459 10 263 0.0 4.8 0.00 0.00 0.00 88 1020.6
20260507074959 10 250 0.0 4.8 0.00 0.00 0.00 88 1020.6
20260507074500 10 271 1.6 4.8 0.00 0.00 0.00 88 1020.7
20260507074000 10 252 3.2 4.8 0.00 0.00 0.00 87 1020.6
20260507073459 10 233 0.0 4.8 0.00 0.00 0.00 87 1020.5
20260507073000 10 242 0.0 4.8 0.00 0.00 0.00 87 1020.5
20260507072500 10 232 0.0 3.2 0.00 0.00 0.00 87 1020.5
20260507071959 10 258 1.6 3.2 0.00 0.00 0.00 87 1020.5
20260507071459 11 269 0.0 1.6 0.00 0.00 0.00 88 1020.4
20260507070958 11 270 1.6 1.6 0.00 0.00 0.00 88 1020.5
20260507070459 11 269 1.6 3.2 0.00 0.00 0.00 87 1020.5
20260507065500 11 248 0.0 3.2 0.00 0.00 0.00 87 1020.5
20260507065000 11 245 0.0 3.2 0.00 0.00 0.00 87 1020.5
20260507064500 11 242 0.0 0.0 0.00 0.00 0.00 87 1020.5
20260507064000 11 242 0.0 0.0 0.00 0.00 0.00 87 1020.5
20260507062500 11 242 0.0 3.2 0.00 0.00 0.00 86 1020.5
20260507061958 11 276 1.6 1.6 0.00 0.00 0.00 86 1020.5
20260507061459 11 276 0.0 3.2 0.00 0.00 0.00 86 1020.5
20260507061001 11 276 1.6 3.2 0.00 0.00 0.00 85 1020.5
20260507060459 11 281 1.6 1.6 0.00 0.00 0.00 85 1020.5
20260507060000 11 259 0.0 3.2 0.00 0.00 0.00 85 1020.5
20260507054959 11 268 0.0 3.2 0.00 0.00 0.00 85 1020.5
20260507054459 11 268 1.6 3.2 0.00 0.00 0.00 85 1020.5
20260507054000 11 302 0.0 0.0 0.00 0.00 0.00 85 1020.5
20260507053501 11 302 0.0 0.0 0.00 0.00 0.00 85 1020.4
20260507053001 11 302 0.0 0.0 0.00 0.00 0.00 85 1020.5
20260507052500 11 302 0.0 1.6 0.00 0.00 0.00 84 1020.5
20260507052000 11 302 0.0 3.2 0.00 0.00 0.00 84 1020.5
20260507051458 11 304 1.6 3.2 0.00 0.00 0.00 84 1020.5
20260507050959 11 233 0.0 0.0 0.00 0.00 0.00 84 1020.5
20260507045959 11 233 0.0 8.0 0.00 0.00 0.00 84 1020.5
20260507045458 11 192 1.6 8.0 0.00 0.00 0.00 83 1020.5
20260507044957 11 293 0.0 0.0 0.00 0.00 0.00 84 1020.5
20260507044459 11 293 0.0 0.0 0.00 0.00 0.00 83 1020.5
20260507043958 11 293 0.0 0.0 0.00 0.00 0.00 83 1020.5
20260507043458 11 293 0.0 0.0 0.00 0.00 0.00 83 1020.5
20260507042958 11 293 0.0 3.2 0.00 0.00 0.00 84 1020.4
20260507042459 11 293 0.0 3.2 0.00 0.00 0.00 83 1020.4
20260507041957 12 247 0.0 4.8 0.00 0.00 0.00 83 1020.4
20260507041457 11 224 3.2 4.8 0.00 0.00 0.00 82 1020.5
20260507040959 12 286 0.0 4.8 0.00 0.00 0.00 82 1020.4
20260507040458 12 214 0.0 1.6 0.00 0.00 0.00 83 1020.4
20260507035008 12 256 0.0 1.6 0.00 0.00 0.00 83 1020.3
20260507034459 12 219 0.0 3.2 0.00 0.00 0.00 83 1020.2
20260507033501 12 233 1.6 3.2 0.00 0.00 0.00 84 1020.2
20260507033000 12 299 0.0 0.0 0.00 0.00 0.00 84 1020.1
20260507032458 12 299 0.0 1.6 0.00 0.00 0.00 85 1020.1
20260507031459 12 266 0.0 0.0 0.00 0.00 0.00 84 1019.9
20260507030959 12 266 0.0 0.0 0.00 0.00 0.00 84 1019.9
20260507030459 12 266 0.0 0.0 0.00 0.00 0.00 84 1019.9
20260507025459 12 266 0.0 0.0 0.00 0.00 0.00 84 1019.9
20260507025000 12 266 0.0 0.0 0.00 0.00 0.00 84 1019.9
20260507024500 12 266 0.0 1.6 0.00 0.00 0.00 84 1019.9
20260507023500 12 266 0.0 3.2 0.00 0.00 0.00 84 1019.8
20260507022959 12 266 1.6 3.2 0.00 0.00 0.00 82 1019.8
20260507022458 12 1 0.0 1.6 0.00 0.00 0.00 82 1019.8
20260507021959 12 1 0.0 0.0 0.00 0.00 0.00 82 1019.8
20260507020958 13 1 0.0 0.0 0.00 0.00 0.00 82 1019.8
20260507020000 13 1 0.0 0.0 0.00 0.00 0.00 81 1019.8
20260507015459 13 1 0.0 0.0 0.00 0.00 0.00 81 1019.8
20260507014458 13 1 0.0 0.0 0.00 0.00 0.00 80 1019.7
20260507013000 13 15 0.0 4.8 0.00 0.00 0.00 80 1019.8
20260507012459 13 1 0.0 4.8 0.00 0.00 0.00 80 1019.8
20260507011959 13 13 0.0 1.6 0.00 0.00 0.00 80 1019.7
20260507011458 13 13 0.0 1.6 0.00 0.00 0.00 80 1019.7
20260507010959 13 24 0.0 1.6 0.00 0.00 0.00 80 1019.8
20260507010459 13 24 0.0 1.6 0.00 0.00 0.00 79 1019.8
20260507005457 13 39 1.6 3.2 0.00 0.00 0.00 79 1019.9
20260507004459 13 68 0.0 3.2 0.00 0.00 0.00 79 1019.9
20260507004000 13 72 1.6 3.2 0.00 0.00 0.00 79 1019.9
20260507003459 13 338 0.0 3.2 0.00 0.00 0.00 78 1019.9
20260507002959 13 71 1.6 4.8 0.00 0.00 0.00 78 1019.9
20260507002458 13 356 1.6 4.8 0.00 0.00 0.00 78 1020.0
20260507001958 13 311 0.0 6.4 0.00 0.00 0.00 78 1019.9
20260507001458 13 86 0.0 6.4 0.00 0.00 0.00 77 1019.8
20260507000959 13 284 0.0 6.4 0.00 0.00 0.00 77 1019.9
20260507000500 13 120 0.0 6.4 0.00 0.00 0.00 77 1019.9
20260507000002 13 7 1.6 4.8 0.00 0.00 0.00 77 1019.9
20260506235459 13 342 0.0 4.8 0.00 0.00 0.00 78 1019.9
20260506234959 13 359 1.6 4.8 0.00 0.00 0.00 77 1019.9
20260506234459 13 44 0.0 1.6 0.00 0.00 0.00 79 1019.9
20260506234000 13 359 0.0 3.2 0.00 0.00 0.00 78 1019.9
20260506233500 13 6 0.0 6.4 0.00 0.00 0.00 77 1019.9
20260506232959 13 291 1.6 6.4 0.00 0.00 0.00 76 1020.0
20260506232459 13 1 1.6 3.2 0.00 0.00 0.00 76 1020.0
20260506231959 13 338 1.6 3.2 0.00 0.00 0.00 76 1020.0
20260506230958 13 308 1.6 3.2 0.00 0.00 0.00 75 1020.0
20260506230457 13 306 0.0 3.2 0.00 0.00 0.00 76 1019.9
20260506225457 13 243 1.6 6.4 0.00 0.00 0.00 76 1020.0
20260506224958 13 298 1.6 6.4 0.00 0.00 0.00 77 1020.0
20260506224501 13 270 0.0 6.4 0.00 0.00 0.00 77 1020.1
20260506224000 13 216 0.0 6.4 0.00 0.00 0.00 77 1020.1
20260506223458 13 250 1.6 3.2 0.00 0.00 0.00 78 1020.1
20260506222959 13 260 0.0 3.2 0.00 0.00 0.00 78 1020.2
20260506221500 13 349 3.2 6.4 0.00 0.00 0.00 77 1020.3
20260506220459 13 317 1.6 3.2 0.00 0.00 0.00 79 1020.3
20260506215958 13 333 0.0 3.2 0.00 0.00 0.00 78 1020.2
20260506215457 13 297 1.6 3.2 0.00 0.00 0.00 78 1020.3
20260506214458 13 307 0.0 4.8 0.00 0.00 0.00 79 1020.3
20260506213958 13 346 3.2 6.4 0.00 0.00 0.00 79 1020.3
20260506213457 13 311 1.6 6.4 0.00 0.00 0.00 79 1020.3
20260506212958 13 340 1.6 3.2 0.00 0.00 0.00 80 1020.3
20260506212458 13 314 1.6 4.8 0.00 0.00 0.00 80 1020.3
20260506211956 13 279 1.6 6.4 0.00 0.00 0.00 79 1020.3
20260506210958 13 284 1.6 6.4 0.00 0.00 0.00 79 1020.2
20260506210458 13 311 0.0 6.4 0.00 0.00 0.00 80 1020.2
20260506210002 13 357 1.6 6.4 0.00 0.00 0.00 80 1020.2
20260506205458 13 340 1.6 6.4 0.00 0.00 0.00 81 1020.2
20260506204957 13 204 0.0 1.6 0.00 0.00 0.00 82 1020.2
20260506204459 13 245 0.0 3.2 0.00 0.00 0.00 82 1020.1
20260506203959 13 200 1.6 4.8 0.00 0.00 0.00 82 1020.1
20260506203459 13 259 1.6 4.8 0.00 0.00 0.00 82 1020.1
20260506202959 13 196 1.6 4.8 0.00 0.00 0.00 82 1020.1
20260506202459 13 282 1.6 4.8 0.00 0.00 0.00 82 1020.0
20260506201958 13 269 1.6 3.2 0.00 0.00 0.00 83 1020.0
20260506201458 13 268 1.6 3.2 0.00 0.00 0.00 83 1020.0
20260506200458 13 227 1.6 8.0 0.00 0.00 0.00 83 1020.0
20260506200001 13 271 1.6 8.0 0.00 0.00 0.00 84 1020.0
20260506195458 13 307 3.2 8.0 0.00 0.00 0.00 83 1019.9
20260506193958 13 224 1.6 3.2 0.00 0.00 0.00 85 1019.8
20260506193458 12 181 1.6 4.8 0.00 0.00 0.00 84 1019.8
20260506192500 12 238 0.0 1.6 0.00 0.00 0.00 85 1019.9
20260506192001 12 179 0.0 3.2 0.00 0.00 0.00 85 1019.9
20260506191458 12 105 0.0 3.2 0.00 0.00 0.00 86 1019.9
20260506190959 12 269 0.0 3.2 0.00 0.00 0.00 85 1019.9
20260506190459 12 160 1.6 1.6 0.00 0.00 0.00 85 1019.9
20260506185958 12 192 0.0 4.8 0.00 0.00 0.00 85 1019.9
20260506185458 12 225 0.0 4.8 0.00 0.00 0.00 85 1020.0
20260506184959 12 276 4.8 4.8 0.00 0.00 0.00 85 1020.0
20260506184500 12 276 0.0 4.8 0.00 0.00 0.00 84 1020.1
20260506183458 12 235 1.6 4.8 0.00 0.00 0.00 84 1019.9
20260506181956 12 217 3.2 6.4 0.00 0.00 0.00 85 1019.7
20260506181457 12 149 1.6 3.2 0.00 0.00 0.00 86 1019.7
20260506180457 12 302 3.2 4.8 0.00 0.00 0.00 86 1019.8
20260506175957 12 304 3.2 8.0 0.00 0.00 0.00 87 1019.8
20260506175458 12 252 0.0 8.0 0.00 0.00 0.00 87 1019.8
20260506174957 12 184 0.0 4.8 0.00 0.00 0.00 87 1019.8
20260506174456 11 263 1.6 6.4 0.00 0.00 0.00 87 1019.8
20260506173957 11 265 4.8 6.4 0.00 0.00 0.00 88 1019.8
20260506173456 11 272 1.6 3.2 0.00 0.00 0.00 89 1019.9
20260506171958 11 259 0.0 8.0 0.00 0.00 0.00 89 1019.8
20260506171457 11 267 3.2 3.2 0.00 0.00 0.00 90 1019.7
20260506170958 11 217 1.6 3.2 0.00 0.00 0.00 89 1019.8
20260506170457 11 213 1.6 3.2 0.00 0.00 0.00 89 1019.7
20260506170000 11 270 3.2 3.2 0.00 0.00 0.00 90 1019.8
20260506165458 11 266 0.0 4.8 0.00 0.00 0.00 91 1019.6
20260506164957 11 271 1.6 4.8 0.00 0.00 0.00 91 1019.4
20260506164458 11 238 0.0 3.2 0.00 0.00 0.00 91 1019.4
20260506163959 11 252 1.6 3.2 0.00 0.00 0.00 91 1019.3
20260506163458 11 85 1.6 3.2 0.00 0.00 0.00 91 1019.3
20260506162959 11 102 0.0 1.6 0.00 0.00 0.00 92 1019.4
20260506161959 11 230 1.6 1.6 0.00 0.00 0.00 92 1019.2
20260506161458 11 224 0.0 1.6 0.00 0.00 0.00 91 1019.3
20260506161000 11 274 0.0 1.6 0.00 0.00 0.00 92 1019.4
20260506160500 11 260 0.0 3.2 0.00 0.00 0.00 92 1019.5
20260506155957 11 260 0.0 3.2 0.00 0.00 0.00 91 1019.6
20260506155458 11 274 1.6 3.2 0.00 0.00 0.00 92 1019.6
20260506154958 11 295 1.6 4.8 0.00 0.00 0.00 92 1019.5
20260506153957 11 293 1.6 3.2 0.00 0.00 0.00 92 1019.2
20260506153456 11 163 0.0 3.2 0.00 0.00 0.00 92 1019.1
20260506152957 11 147 0.0 3.2 0.00 0.00 0.00 92 1019.1
20260506152457 11 157 0.0 4.8 0.00 0.00 0.00 92 1019.2
20260506151957 11 259 0.0 4.8 0.00 0.00 0.00 92 1019.4
20260506150956 11 300 0.0 1.6 0.00 0.00 0.00 92 1019.4
20260506150458 11 300 0.0 3.2 0.00 0.00 0.00 92 1019.3
20260506145459 11 261 1.6 3.2 0.00 0.00 0.00 92 1019.4
20260506144959 11 272 0.0 3.2 0.00 0.00 0.00 92 1019.2
20260506144501 11 286 0.0 3.2 0.00 0.00 0.00 92 1019.0
20260506143959 11 269 1.6 3.2 0.00 0.00 0.00 92 1019.0
20260506143457 11 5 0.0 1.6 0.00 0.00 0.00 92 1018.8
20260506142958 11 5 0.0 1.6 0.00 0.00 0.00 91 1018.9
20260506142458 11 5 0.0 0.0 0.00 0.00 0.00 91 1019.1
20260506141958 11 5 0.0 0.0 0.00 0.00 0.00 91 1019.1
20260506141459 11 5 0.0 1.6 0.00 0.00 0.00 92 1019.1
20260506140000 11 61 1.6 3.2 0.00 0.00 0.00 91 1018.9
20260506135458 11 293 0.0 3.2 0.00 0.00 0.00 91 1019.1
20260506134958 11 303 0.0 0.0 0.00 0.00 0.00 91 1019.0
20260506134459 11 303 0.0 1.6 0.00 0.00 0.00 91 1018.9
20260506133957 11 303 0.0 3.2 0.00 0.00 0.00 91 1019.0
20260506132957 11 258 0.0 0.0 0.00 0.00 0.00 91 1018.6
20260506131957 11 258 0.0 1.6 0.00 0.00 0.00 91 1018.6
20260506131459 11 207 0.0 1.6 0.00 0.00 0.00 91 1018.6
20260506130458 11 222 0.0 3.2 0.00 0.00 0.00 91 1018.5
20260506125958 11 239 0.0 1.6 0.00 0.00 0.00 91 1018.5
20260506125457 11 239 0.0 1.6 0.00 0.00 0.00 91 1018.6
20260506124958 11 239 0.0 1.6 0.00 0.00 0.00 91 1018.4
20260506124459 11 239 0.0 0.0 0.00 0.00 0.00 91 1018.4
20260506123958 11 239 0.0 1.6 0.00 0.00 0.00 91 1018.3
20260506122958 11 143 0.0 0.0 0.00 0.00 0.00 91 1018.2
20260506121958 11 143 0.0 0.0 0.00 0.00 0.00 91 1018.2
20260506121459 11 143 0.0 0.0 0.00 0.00 0.00 91 1018.2
20260506120957 11 143 0.0 0.0 0.00 0.00 0.00 91 1018.1
20260506120458 11 143 0.0 0.0 0.00 0.00 0.00 91 1018.1
20260506120000 11 143 0.0 0.0 0.00 0.00 0.00 91 1018.0
20260506115458 11 143 0.0 0.0 0.00 0.00 0.00 91 1018.0
20260506114959 11 143 0.0 1.6 0.00 0.00 0.00 90 1018.0
20260506114459 11 143 0.0 3.2 0.00 0.00 0.00 90 1018.0
20260506113959 11 143 0.0 3.2 0.00 0.00 0.00 90 1018.2
20260506113459 11 238 0.0 1.6 0.00 0.00 0.00 90 1018.2
20260506111958 11 208 0.0 1.6 0.00 0.00 0.00 89 1018.1
20260506111458 11 208 0.0 1.6 0.00 0.00 0.00 89 1018.0
20260506110957 11 209 0.0 1.6 0.00 0.00 0.00 88 1017.9
20260506110457 11 252 0.0 1.6 0.00 0.00 0.00 88 1017.9
20260506105957 11 93 1.6 1.6 0.00 0.00 0.00 88 1017.9
20260506105457 11 259 0.0 0.0 0.00 0.00 0.00 88 1017.9
20260506104958 11 259 0.0 0.0 0.00 0.00 0.00 88 1017.8